P4MALC KSRQ-KJAX

Flight info

Callsign P4MALC
Flight time 1h 7m
Altitude 21000
Route OCF
Aircraft BT36/L-BDFGLORY/S

Departure

Time 2026-04-22 23:50
Airport Sarasota Bradenton International Airport (KSRQ)

Arrival

Time 2026-04-23 00:58
Airport Jacksonville International Airport (KJAX)
Time Latitude Longitude Altitude Speed Heading
2026-04-22 23:10 27.40186 -82.55174 0 ft 0 kts 300°
2026-04-22 23:43 27.40186 -82.55198 26 ft 6 kts 202°
2026-04-22 23:43 27.40139 -82.55200 25 ft 0 kts 180°
2026-04-22 23:45 27.40114 -82.55168 25 ft 13 kts 93°
2026-04-22 23:45 27.40117 -82.55032 25 ft 20 kts 92°
2026-04-22 23:45 27.40069 -82.54943 27 ft 16 kts 209°
2026-04-22 23:45 27.39975 -82.55023 26 ft 18 kts 217°
2026-04-22 23:46 27.39874 -82.55111 26 ft 20 kts 218°
2026-04-22 23:46 27.39760 -82.55212 25 ft 22 kts 219°
2026-04-22 23:46 27.39641 -82.55318 25 ft 20 kts 219°
2026-04-22 23:46 27.39561 -82.55389 25 ft 7 kts 221°
2026-04-22 23:47 27.39558 -82.55392 25 ft 0 kts 221°
2026-04-22 23:49 27.39557 -82.55393 25 ft 2 kts 221°
2026-04-22 23:49 27.39507 -82.55448 24 ft 14 kts 254°
2026-04-22 23:49 27.39515 -82.55481 24 ft 0 kts 311°
2026-04-22 23:49 27.39665 -82.55656 29 ft 77 kts 312°
2026-04-22 23:50 27.40103 -82.56236 320 ft 112 kts 305°
2026-04-22 23:50 27.40406 -82.57084 729 ft 126 kts 275°
2026-04-22 23:50 27.40199 -82.58083 1187 ft 136 kts 253°
2026-04-22 23:50 27.39867 -82.59069 1770 ft 133 kts 246°
2026-04-22 23:51 27.39476 -82.60052 2266 ft 142 kts 246°
2026-04-22 23:51 27.39095 -82.61106 2754 ft 148 kts 246°
2026-04-22 23:51 27.38696 -82.62195 3252 ft 153 kts 245°
2026-04-22 23:51 27.38300 -82.63311 3760 ft 154 kts 248°
2026-04-22 23:52 27.37971 -82.64468 4284 ft 156 kts 250°
2026-04-22 23:52 27.37742 -82.65661 4798 ft 159 kts 274°
2026-04-22 23:52 27.38159 -82.66793 5308 ft 160 kts 301°
2026-04-22 23:52 27.38705 -82.67886 5841 ft 161 kts 300°
2026-04-22 23:53 27.39337 -82.68915 6374 ft 159 kts 324°
2026-04-22 23:53 27.40352 -82.69202 6880 ft 151 kts 15°
2026-04-22 23:53 27.41160 -82.68548 7378 ft 145 kts 58°
2026-04-22 23:53 27.41744 -82.67615 7903 ft 147 kts 50°
2026-04-22 23:54 27.42239 -82.67080 8249 ft 150 kts 40°
2026-04-22 23:54 27.43151 -82.66499 8778 ft 153 kts 17°
2026-04-22 23:54 27.44182 -82.66208 9325 ft 154 kts 10°
2026-04-22 23:54 27.45231 -82.65943 9889 ft 155 kts
2026-04-22 23:55 27.46649 -82.65594 10582 ft 156 kts
2026-04-22 23:55 27.47353 -82.65420 10927 ft 156 kts
2026-04-22 23:55 27.48403 -82.65161 11450 ft 156 kts
2026-04-22 23:55 27.49481 -82.64895 11992 ft 157 kts
2026-04-22 23:56 27.50534 -82.64635 12532 ft 157 kts
2026-04-22 23:56 27.51602 -82.64371 13089 ft 157 kts
2026-04-22 23:56 27.52674 -82.64106 13654 ft 157 kts
2026-04-22 23:56 27.53745 -82.63841 14194 ft 158 kts
2026-04-22 23:57 27.54816 -82.63577 14705 ft 158 kts
2026-04-22 23:57 27.55896 -82.63310 15227 ft 159 kts
2026-04-22 23:57 27.56979 -82.63042 15750 ft 160 kts
2026-04-22 23:57 27.58069 -82.62772 16273 ft 161 kts
2026-04-22 23:58 27.59149 -82.62505 16814 ft 161 kts
2026-04-22 23:58 27.60251 -82.62232 17368 ft 162 kts
2026-04-22 23:58 27.61356 -82.61958 17932 ft 163 kts
2026-04-22 23:58 27.62464 -82.61684 18492 ft 163 kts
2026-04-22 23:59 27.63574 -82.61408 18989 ft 163 kts
2026-04-22 23:59 27.64686 -82.61133 19494 ft 164 kts
2026-04-22 23:59 27.65798 -82.60856 20014 ft 163 kts
2026-04-22 23:59 27.66899 -82.60582 20508 ft 161 kts
2026-04-23 00:00 27.69105 -82.60044 21131 ft 179 kts
2026-04-23 00:00 27.70386 -82.59726 21143 ft 196 kts
2026-04-23 00:00 27.71759 -82.59380 21140 ft 207 kts
2026-04-23 00:01 27.73185 -82.59023 21140 ft 213 kts
2026-04-23 00:01 27.74625 -82.58659 21138 ft 209 kts
2026-04-23 00:01 27.76032 -82.58308 21135 ft 205 kts
2026-04-23 00:01 27.77423 -82.57965 21135 ft 203 kts
2026-04-23 00:02 27.78798 -82.57624 21132 ft 202 kts
2026-04-23 00:02 27.80171 -82.57284 21132 ft 202 kts
2026-04-23 00:02 27.81542 -82.56943 21156 ft 202 kts
2026-04-23 00:02 27.82914 -82.56602 21156 ft 202 kts
2026-04-23 00:03 27.84284 -82.56262 21155 ft 202 kts
2026-04-23 00:03 27.85654 -82.55921 21157 ft 202 kts
2026-04-23 00:03 27.87025 -82.55580 21157 ft 202 kts
2026-04-23 00:03 27.88394 -82.55239 21155 ft 202 kts
2026-04-23 00:04 27.89765 -82.54898 21158 ft 202 kts
2026-04-23 00:04 27.91135 -82.54557 21157 ft 202 kts
2026-04-23 00:04 27.92506 -82.54215 21158 ft 202 kts
2026-04-23 00:04 27.93877 -82.53874 21155 ft 202 kts
2026-04-23 00:05 27.95247 -82.53532 21155 ft 202 kts
2026-04-23 00:05 27.96617 -82.53191 21156 ft 202 kts
2026-04-23 00:05 27.97970 -82.52854 21158 ft 202 kts
2026-04-23 00:05 27.99343 -82.52511 21158 ft 202 kts
2026-04-23 00:06 28.00713 -82.52170 21159 ft 202 kts
2026-04-23 00:06 28.02083 -82.51828 21159 ft 202 kts
2026-04-23 00:06 28.03453 -82.51488 21156 ft 201 kts
2026-04-23 00:06 28.04829 -82.51156 21156 ft 201 kts
2026-04-23 00:07 28.06197 -82.50834 21157 ft 201 kts
2026-04-23 00:07 28.07566 -82.50520 21157 ft 200 kts
2026-04-23 00:07 28.08913 -82.50220 21157 ft 199 kts
2026-04-23 00:07 28.10275 -82.49926 21159 ft 199 kts
2026-04-23 00:08 28.11634 -82.49641 21158 ft 199 kts
2026-04-23 00:08 28.12990 -82.49365 21159 ft 198 kts
2026-04-23 00:08 28.14352 -82.49098 21161 ft 198 kts
2026-04-23 00:08 28.15711 -82.48840 21162 ft 198 kts 360°
2026-04-23 00:09 28.17071 -82.48591 21162 ft 198 kts 359°
2026-04-23 00:09 28.18429 -82.48353 21162 ft 197 kts 359°
2026-04-23 00:09 28.19785 -82.48123 21163 ft 197 kts 359°
2026-04-23 00:09 28.21141 -82.47903 21164 ft 197 kts 359°
2026-04-23 00:10 28.22500 -82.47692 21165 ft 197 kts 358°
2026-04-23 00:10 28.23841 -82.47493 21173 ft 196 kts 358°
2026-04-23 00:10 28.25197 -82.47302 21177 ft 196 kts 358°
2026-04-23 00:10 28.26553 -82.47120 21173 ft 196 kts 357°
2026-04-23 00:11 28.27912 -82.46947 21173 ft 196 kts 357°
2026-04-23 00:11 28.29267 -82.46784 21172 ft 196 kts 356°
2026-04-23 00:11 28.30627 -82.46631 21176 ft 195 kts 356°
2026-04-23 00:11 28.31980 -82.46488 21175 ft 195 kts 356°
2026-04-23 00:12 28.33332 -82.46354 21175 ft 195 kts 355°
2026-04-23 00:12 28.34685 -82.46230 21177 ft 195 kts 355°
2026-04-23 00:12 28.36021 -82.46117 21174 ft 195 kts 354°
2026-04-23 00:12 28.37371 -82.46013 21174 ft 194 kts 354°
2026-04-23 00:13 28.38723 -82.45919 21175 ft 194 kts 354°
2026-04-23 00:13 28.40074 -82.45834 21176 ft 194 kts 353°
2026-04-23 00:13 28.41426 -82.45737 21174 ft 196 kts 358°
2026-04-23 00:13 28.42779 -82.45393 21175 ft 201 kts
2026-04-23 00:14 28.44126 -82.44950 21175 ft 201 kts
2026-04-23 00:14 28.45460 -82.44534 21177 ft 201 kts
2026-04-23 00:14 28.46810 -82.44130 21177 ft 201 kts
2026-04-23 00:14 28.48163 -82.43725 21175 ft 201 kts
2026-04-23 00:15 28.49514 -82.43319 21177 ft 201 kts
2026-04-23 00:15 28.50864 -82.42912 21170 ft 201 kts
2026-04-23 00:15 28.52218 -82.42505 21176 ft 201 kts
2026-04-23 00:15 28.53568 -82.42098 21176 ft 201 kts
2026-04-23 00:16 28.54922 -82.41690 21175 ft 201 kts
2026-04-23 00:16 28.56257 -82.41288 21175 ft 201 kts
2026-04-23 00:16 28.57607 -82.40881 21177 ft 201 kts
2026-04-23 00:16 28.58958 -82.40473 21177 ft 201 kts
2026-04-23 00:17 28.60314 -82.40064 21177 ft 201 kts
2026-04-23 00:17 28.61665 -82.39657 21165 ft 201 kts
2026-04-23 00:17 28.63019 -82.39248 21177 ft 201 kts
2026-04-23 00:17 28.64370 -82.38840 21183 ft 201 kts
2026-04-23 00:18 28.65722 -82.38433 21181 ft 201 kts
2026-04-23 00:18 28.67076 -82.38024 21185 ft 201 kts
2026-04-23 00:18 28.68428 -82.37615 21185 ft 201 kts
2026-04-23 00:18 28.69764 -82.37211 21187 ft 201 kts
2026-04-23 00:19 28.71117 -82.36803 21184 ft 201 kts
2026-04-23 00:19 28.72477 -82.36391 21179 ft 201 kts
2026-04-23 00:19 28.73832 -82.35981 21186 ft 202 kts
2026-04-23 00:19 28.75189 -82.35571 21186 ft 202 kts
2026-04-23 00:20 28.76547 -82.35160 21185 ft 202 kts
2026-04-23 00:20 28.77904 -82.34749 21185 ft 202 kts
2026-04-23 00:20 28.79260 -82.34339 21185 ft 202 kts
2026-04-23 00:20 28.80616 -82.33928 21181 ft 202 kts
2026-04-23 00:21 28.81971 -82.33518 21186 ft 202 kts
2026-04-23 00:21 28.83330 -82.33106 21184 ft 202 kts
2026-04-23 00:21 28.84668 -82.32700 21186 ft 201 kts
2026-04-23 00:21 28.86023 -82.32290 21185 ft 201 kts
2026-04-23 00:22 28.87378 -82.31879 21181 ft 201 kts
2026-04-23 00:22 28.88737 -82.31467 21187 ft 202 kts
2026-04-23 00:22 28.90093 -82.31056 21186 ft 202 kts
2026-04-23 00:22 28.91452 -82.30643 21188 ft 202 kts
2026-04-23 00:23 28.92810 -82.30231 21188 ft 202 kts
2026-04-23 00:23 28.94169 -82.29818 21186 ft 202 kts
2026-04-23 00:23 28.95530 -82.29405 21187 ft 202 kts
2026-04-23 00:23 28.96887 -82.28992 21188 ft 202 kts
2026-04-23 00:24 28.98243 -82.28580 21190 ft 202 kts
2026-04-23 00:24 28.99584 -82.28173 21196 ft 202 kts
2026-04-23 00:24 29.00943 -82.27759 21194 ft 202 kts
2026-04-23 00:24 29.02302 -82.27344 21195 ft 202 kts
2026-04-23 00:25 29.03662 -82.26933 21194 ft 202 kts
2026-04-23 00:25 29.05027 -82.26518 21194 ft 202 kts
2026-04-23 00:25 29.06389 -82.26103 21193 ft 203 kts
2026-04-23 00:25 29.07751 -82.25688 21195 ft 202 kts
2026-04-23 00:26 29.09117 -82.25272 21191 ft 202 kts
2026-04-23 00:26 29.10478 -82.24857 21194 ft 202 kts
2026-04-23 00:26 29.11839 -82.24443 21197 ft 202 kts
2026-04-23 00:26 29.13184 -82.24032 21194 ft 202 kts
2026-04-23 00:27 29.14546 -82.23617 21194 ft 202 kts
2026-04-23 00:27 29.15910 -82.23202 21195 ft 202 kts
2026-04-23 00:27 29.17271 -82.22790 21194 ft 202 kts
2026-04-23 00:27 29.18624 -82.22727 21192 ft 191 kts 345°
2026-04-23 00:28 29.19948 -82.22883 21193 ft 192 kts 346°
2026-04-23 00:28 29.21279 -82.23018 21194 ft 192 kts 346°
2026-04-23 00:28 29.22610 -82.23157 21194 ft 192 kts 346°
2026-04-23 00:28 29.23948 -82.23301 21197 ft 192 kts 346°
2026-04-23 00:29 29.25276 -82.23444 21194 ft 192 kts 346°
2026-04-23 00:29 29.26592 -82.23584 21194 ft 192 kts 346°
2026-04-23 00:29 29.27924 -82.23726 21194 ft 192 kts 346°
2026-04-23 00:29 29.29257 -82.23869 21193 ft 192 kts 346°
2026-04-23 00:30 29.30589 -82.24011 21198 ft 192 kts 346°
2026-04-23 00:30 29.31925 -82.24154 21197 ft 192 kts 346°
2026-04-23 00:30 29.33258 -82.24297 21196 ft 192 kts 346°
2026-04-23 00:30 29.34595 -82.24440 21197 ft 193 kts 347°
2026-04-23 00:31 29.35929 -82.24583 21200 ft 193 kts 347°
2026-04-23 00:31 29.37265 -82.24726 21200 ft 193 kts 347°
2026-04-23 00:31 29.38589 -82.24867 21200 ft 193 kts 347°
2026-04-23 00:31 29.39928 -82.25011 21201 ft 193 kts 347°
2026-04-23 00:32 29.41265 -82.25154 21201 ft 193 kts 347°
2026-04-23 00:32 29.42602 -82.25297 21202 ft 193 kts 347°
2026-04-23 00:32 29.43942 -82.25441 21208 ft 193 kts 347°
2026-04-23 00:32 29.45279 -82.25584 21204 ft 193 kts 347°
2026-04-23 00:33 29.46615 -82.25728 21208 ft 193 kts 347°
2026-04-23 00:33 29.47953 -82.25871 21203 ft 193 kts 347°
2026-04-23 00:33 29.49290 -82.26015 21204 ft 193 kts 347°
2026-04-23 00:33 29.50627 -82.26158 21205 ft 193 kts 347°
2026-04-23 00:34 29.51962 -82.26302 21203 ft 193 kts 347°
2026-04-23 00:34 29.53306 -82.26446 21204 ft 193 kts 347°
2026-04-23 00:34 29.54643 -82.26590 21204 ft 193 kts 347°
2026-04-23 00:34 29.55981 -82.26733 21207 ft 193 kts 347°
2026-04-23 00:35 29.57345 -82.26879 20969 ft 198 kts 348°
2026-04-23 00:35 29.58723 -82.27023 20722 ft 200 kts 348°
2026-04-23 00:35 29.60095 -82.27172 20458 ft 202 kts 348°
2026-04-23 00:35 29.61514 -82.27326 20190 ft 203 kts 348°
2026-04-23 00:36 29.62911 -82.27476 19936 ft 205 kts 349°
2026-04-23 00:36 29.64336 -82.27630 19681 ft 206 kts 349°
2026-04-23 00:36 29.65772 -82.27785 19426 ft 207 kts 349°
2026-04-23 00:36 29.67219 -82.27916 19169 ft 210 kts 354°
2026-04-23 00:37 29.68673 -82.27556 18911 ft 219 kts 15°
2026-04-23 00:37 29.70101 -82.26917 18664 ft 220 kts 16°
2026-04-23 00:37 29.71533 -82.26286 18403 ft 221 kts 15°
2026-04-23 00:37 29.72955 -82.25665 18117 ft 221 kts 16°
2026-04-23 00:38 29.74399 -82.25033 17831 ft 222 kts 16°
2026-04-23 00:38 29.75845 -82.24399 17545 ft 222 kts 16°
2026-04-23 00:38 29.77290 -82.23765 17261 ft 222 kts 16°
2026-04-23 00:38 29.78736 -82.23129 16980 ft 221 kts 17°
2026-04-23 00:39 29.80171 -82.22500 16702 ft 221 kts 17°
2026-04-23 00:39 29.81582 -82.21880 16434 ft 220 kts 17°
2026-04-23 00:39 29.83012 -82.21252 16161 ft 220 kts 17°
2026-04-23 00:39 29.84454 -82.20619 15889 ft 219 kts 17°
2026-04-23 00:40 29.85850 -82.19964 15626 ft 220 kts 21°
2026-04-23 00:40 29.87240 -82.19229 15361 ft 219 kts 21°
2026-04-23 00:40 29.88629 -82.18515 15099 ft 218 kts 21°
2026-04-23 00:40 29.90017 -82.17798 14841 ft 218 kts 21°
2026-04-23 00:41 29.91396 -82.17081 14584 ft 217 kts 21°
2026-04-23 00:41 29.92307 -82.16606 14415 ft 217 kts 21°
2026-04-23 00:41 29.94129 -82.15657 14083 ft 216 kts 22°
2026-04-23 00:41 29.95493 -82.14948 13807 ft 215 kts 22°
2026-04-23 00:42 29.96858 -82.14237 13522 ft 215 kts 22°
2026-04-23 00:42 29.98218 -82.13529 13242 ft 214 kts 22°
2026-04-23 00:42 29.99573 -82.12823 12961 ft 213 kts 22°
2026-04-23 00:42 30.00487 -82.12346 12771 ft 213 kts 22°
2026-04-23 00:43 30.01821 -82.11651 12495 ft 212 kts 22°
2026-04-23 00:43 30.03165 -82.10950 12217 ft 212 kts 22°
2026-04-23 00:43 30.04495 -82.10256 12068 ft 205 kts 22°
2026-04-23 00:43 30.05774 -82.09589 12062 ft 198 kts 22°
2026-04-23 00:44 30.07016 -82.08943 12050 ft 194 kts 22°
2026-04-23 00:44 30.08235 -82.08306 12050 ft 192 kts 22°
2026-04-23 00:44 30.09454 -82.07681 12046 ft 191 kts 21°
2026-04-23 00:44 30.10671 -82.07079 12026 ft 191 kts 21°
2026-04-23 00:45 30.11926 -82.06479 11748 ft 197 kts 21°
2026-04-23 00:45 30.13197 -82.05880 11479 ft 195 kts 20°
2026-04-23 00:45 30.14440 -82.05293 11208 ft 191 kts 21°
2026-04-23 00:45 30.15659 -82.04721 10936 ft 188 kts 20°
2026-04-23 00:46 30.16853 -82.04168 10671 ft 186 kts 21°
2026-04-23 00:46 30.18069 -82.03611 10402 ft 185 kts 20°
2026-04-23 00:46 30.19253 -82.03076 10136 ft 185 kts 20°
2026-04-23 00:46 30.20452 -82.02541 9828 ft 185 kts 20°
2026-04-23 00:47 30.21651 -82.02011 9510 ft 184 kts 20°
2026-04-23 00:47 30.22850 -82.01486 9198 ft 184 kts 20°
2026-04-23 00:47 30.23656 -82.01136 8992 ft 183 kts 20°
2026-04-23 00:47 30.24391 -82.00819 8800 ft 183 kts 19°
2026-04-23 00:48 30.25583 -82.00310 8499 ft 182 kts 19°
2026-04-23 00:48 30.26727 -81.99826 8207 ft 181 kts 19°
2026-04-23 00:48 30.27891 -81.99290 7909 ft 180 kts 27°
2026-04-23 00:48 30.28932 -81.98526 7618 ft 179 kts 32°
2026-04-23 00:49 30.29989 -81.97759 7328 ft 178 kts 30°
2026-04-23 00:49 30.31063 -81.97057 7039 ft 177 kts 28°
2026-04-23 00:49 30.32141 -81.96367 6755 ft 176 kts 28°
2026-04-23 00:49 30.33211 -81.95679 6456 ft 175 kts 28°
2026-04-23 00:50 30.34274 -81.94993 6164 ft 175 kts 28°
2026-04-23 00:50 30.35334 -81.94309 5892 ft 174 kts 28°
2026-04-23 00:50 30.36394 -81.93625 5594 ft 174 kts 28°
2026-04-23 00:50 30.37451 -81.92942 5295 ft 174 kts 28°
2026-04-23 00:51 30.38494 -81.92268 5003 ft 173 kts 28°
2026-04-23 00:51 30.39548 -81.91589 4701 ft 173 kts 28°
2026-04-23 00:51 30.40601 -81.90908 4404 ft 173 kts 28°
2026-04-23 00:51 30.41656 -81.90227 4104 ft 173 kts 29°
2026-04-23 00:52 30.42709 -81.89546 3809 ft 173 kts 29°
2026-04-23 00:52 30.43679 -81.88737 3506 ft 172 kts 50°
2026-04-23 00:52 30.44243 -81.87533 3183 ft 170 kts 71°
2026-04-23 00:52 30.44654 -81.86261 2943 ft 166 kts 71°
2026-04-23 00:53 30.45042 -81.85019 2712 ft 163 kts 74°
2026-04-23 00:53 30.45409 -81.83791 2499 ft 160 kts 73°
2026-04-23 00:53 30.45780 -81.82585 2293 ft 158 kts 73°
2026-04-23 00:53 30.46148 -81.81388 2069 ft 157 kts 75°
2026-04-23 00:54 30.46488 -81.80257 1865 ft 142 kts 75°
2026-04-23 00:54 30.46814 -81.79201 1675 ft 142 kts 75°
2026-04-23 00:54 30.47136 -81.78140 1489 ft 134 kts 76°
2026-04-23 00:54 30.47441 -81.77150 1316 ft 129 kts 75°
2026-04-23 00:55 30.47725 -81.76208 1149 ft 118 kts 77°
2026-04-23 00:55 30.47993 -81.75345 997 ft 106 kts 76°
2026-04-23 00:55 30.48209 -81.74636 867 ft 88 kts 76°
2026-04-23 00:55 30.48420 -81.73984 780 ft 85 kts 75°
2026-04-23 00:56 30.48657 -81.73369 728 ft 81 kts 79°
2026-04-23 00:56 30.48811 -81.72731 581 ft 82 kts 78°
2026-04-23 00:56 30.49009 -81.72096 448 ft 86 kts 75°
2026-04-23 00:56 30.49209 -81.71463 340 ft 78 kts 78°
2026-04-23 00:57 30.49374 -81.70871 218 ft 80 kts 77°
2026-04-23 00:57 30.49559 -81.70248 139 ft 81 kts 73°
2026-04-23 00:57 30.49742 -81.69645 59 ft 80 kts 76°
2026-04-23 00:57 30.49903 -81.69100 33 ft 56 kts 76°
2026-04-23 00:58 30.50000 -81.68751 31 ft 39 kts 70°
2026-04-23 00:58 30.50022 -81.68533 31 ft 18 kts 113°
2026-04-23 00:58 30.49958 -81.68450 30 ft 12 kts 156°
2026-04-23 00:58 30.49880 -81.68444 30 ft 8 kts 177°
2026-04-23 00:59 30.49866 -81.68390 29 ft 9 kts 70°
2026-04-23 00:59 30.49846 -81.68338 29 ft 9 kts 163°
2026-04-23 00:59 30.49798 -81.68298 29 ft 9 kts 92°
2026-04-23 00:59 30.49807 -81.68249 29 ft 2 kts 143°
2026-04-23 01:00 30.49785 -81.68240 29 ft 4 kts 159°
2026-04-23 01:00 30.49772 -81.68258 30 ft 0 kts 247°